OBJECT G
1 47315U 21002G 21042.48503068 .00000910 00000-0 50330-4 0 9993
2 47315 60.6837 42.3831 0012814 291.2007 68.7711 15.22695860 3726
OBJECT J
1 47317U 21002J 21042.45653550 .00001014 00000-0 58243-4 0 9991
2 47317 60.6877 42.8198 0019108 317.4624 42.4980 15.20403525 3698
OBJECT K
1 47318U 21002K 21042.45603275 .00000977 00000-0 56531-4 0 9996
2 47318 60.6875 42.8168 0018991 317.0827 42.8776 15.20433843 3697
ExoCube 2
1 47319U 21002L 21042.51438701 .00000492 00000-0 34166-4 0 9996
2 47319 60.6871 42.5368 0016559 318.0030 41.9786 15.20880428 3672
OBJECT M
1 47320U 21002M 21042.31243220 .00000757 00000-0 45657-4 0 9997
2 47320 60.6863 43.2500 0015936 313.4649 46.5111 15.21181870 3729
OBJECT N
1 47345U 21002N 21042.50020663 .00001487 00000-0 76693-4 0 9994
2 47345 60.6856 42.4635 0017330 299.2030 60.7322 15.21785749 3449
YUSAT 1
1 47439U 21006AC 21042.39288409 .00000656 00000-0 41006-4 0 9990
2 47439 97.5056 105.7829 0013125 166.8146 193.3430 15.12811084 2991
SOMP 2b
1 47445U 21006AJ 21042.12963800 .00000647 00000-0 40590-4 0 9990
2 47445 97.5028 105.5102 0012725 170.8795 189.2670 15.12695250 2950
IDEASSat
1 47458U 21006AX 21042.39579694 .00000603 00000-0 38254-4 0 9993
2 47458 97.5115 105.7966 0012033 167.5864 192.5665 15.12561475 2999
/EX
1
0
11 Feb '21
RadFxSat-2 (Fox-1E) has been renamed as AO-109 in this week's AMSAT-NA TLE
Distribution as follows:
AO-109 - NORAD Cat ID 47311.
As of February 7, 2021 RadFxSat-2 (Fox-1E) was designated AMSAT-OSCAR 109
(A0-109) by Mark Hammond, N8MH, AMSAT Director and Command Station.
The following satellite has been added to this week's AMSAT-NA TLE
Distribution:
YUSAT-1 - NORAD Cat ID 47439.
Thanks to Nico Janssen, PA0DLO, for this satellite identification.
1
0
SB KEPS @ AMSAT $ORB21035.N
2Line Orbital Elements 21035.AMSAT
HR AMSAT ORBITAL ELEMENTS FOR AMATEUR SATELLITES IN NASA FORMAT
FROM WA5QGD FORT WORTH,TX February 4, 2021
BID: ORB21035.N
DECODE 2-LINE ELSETS WITH THE FOLLOWING KEY:
1 AAAAAU 00 0 0 BBBBB.BBBBBBBB .CCCCCCCC 00000-0 00000-0 0 DDDZ
2 AAAAA EEE.EEEE FFF.FFFF GGGGGGG HHH.HHHH III.IIII JJ.JJJJJJJJKKKKKZ
KEY: A-CATALOGNUM B-EPOCHTIME C-DECAY D-ELSETNUM E-INCLINATION F-RAAN
G-ECCENTRICITY H-ARGPERIGEE I-MNANOM J-MNMOTION K-ORBITNUM Z-CHECKSUM
TO ALL RADIO AMATEURS BT
AO-07
1 07530U 74089B 21035.55417368 -.00000026 00000-0 12563-3 0 9992
2 07530 101.8368 10.2907 0011987 278.1819 200.2877 12.53647204115316
UO-11
1 14781U 84021B 21035.49764679 .00000105 00000-0 18903-4 0 9990
2 14781 97.5907 41.9058 0009132 149.9283 210.2457 14.83243899966225
LO-19
1 20442U 90005G 21035.82091574 .00000004 00000-0 17955-4 0 9998
2 20442 98.7242 350.2094 0011544 185.9871 174.1176 14.32975286621893
HUBBLE
1 20580U 90037B 21035.62615645 .00000532 00000-0 21296-4 0 9994
2 20580 28.4685 223.9015 0002838 72.8734 343.5617 15.09549543491013
MET-2/21
1 22782U 93055A 21035.55749699 .00000018 00000-0 34606-5 0 9991
2 22782 82.5472 49.3848 0021305 306.3740 170.9590 13.83831956385410
AO-27
1 22825U 93061C 21035.51650301 -.00000006 00000-0 15686-4 0 9997
2 22825 98.9244 49.8187 0009370 65.0097 295.2056 14.30105206426980
IO-26
1 22826U 93061D 21035.79810969 -.00000003 00000-0 16674-4 0 9991
2 22826 98.9184 50.0290 0009766 52.8490 307.3582 14.30442884427518
FO-29
1 24278U 96046B 21035.49960037 -.00000055 00000-0 -22124-4 0 9994
2 24278 98.5821 121.0183 0351044 133.9509 229.1167 13.53101991208260
NOAA-15
1 25338U 98030A 21035.75482665 .00000015 00000-0 24837-4 0 9999
2 25338 98.6972 65.3684 0009542 310.6619 49.3730 14.26011546182335
GO-32
1 25397U 98043D 21035.57871998 -.00000003 00000-0 18367-4 0 9998
2 25397 98.7566 341.6056 0002329 98.6044 261.5399 14.23700540172585
ISS
1 25544U 98067A 21035.92525463 .00000939 00000-0 25229-4 0 9992
2 25544 51.6455 276.9027 0002167 337.8297 218.4583 15.48940430268090
NO-44
1 26931U 01043C 21035.34705010 -.00000022 00000-0 23182-4 0 9995
2 26931 67.0499 263.9552 0007374 270.4757 89.5499 14.30605028 10209
SO-50
1 27607U 02058C 21035.13939079 .00000012 00000-0 22007-4 0 9997
2 27607 64.5560 25.9908 0029575 79.1289 281.3139 14.75708287974889
CO-55
1 27844U 03031E 21035.44750758 .00000058 00000-0 45558-4 0 9997
2 27844 98.6822 45.6656 0010917 102.8738 257.3660 14.22286076913078
CO-57
1 27848U 03031J 21035.54200657 .00000040 00000-0 37888-4 0 9998
2 27848 98.6882 46.3267 0010753 114.4105 245.8195 14.21866203912922
RS-22
1 27939U 03042A 21035.85244825 .00000172 00000-0 39376-4 0 9990
2 27939 98.1184 174.0488 0012239 345.0201 15.0638 14.66940632928088
NOAA-18
1 28654U 05018A 21035.56724128 .00000056 00000-0 54898-4 0 9994
2 28654 99.0132 99.7996 0013357 298.3689 61.6135 14.12578537809680
CO-58
1 28895U 05043F 21035.61804760 .00000148 00000-0 37283-4 0 9997
2 28895 98.0373 171.9311 0015478 268.4130 91.5299 14.63861055814575
Falconsat-3
1 30776U 07006E 21035.60804827 .00004494 00000-0 11293-3 0 9992
2 30776 35.4329 233.1848 0001537 145.9151 214.1675 15.39471800772619
CO-65
1 32785U 08021C 21035.51504940 .00000323 00000-0 40188-4 0 9998
2 32785 97.5970 19.6370 0014508 84.5918 275.6954 14.88624920692462
AAUSAT2
1 32788U 08021F 21035.54000805 .00001112 00000-0 10558-3 0 9999
2 32788 97.4991 35.8342 0011659 4.4717 355.6607 14.95375422693999
DO-64
1 32789U 08021G 21035.57045269 .00001744 00000-0 11573-3 0 9995
2 32789 97.3930 75.9849 0010688 234.3931 125.6303 15.08460060696799
CO-66
1 32791U 08021J 21035.51357905 .00000608 00000-0 66321-4 0 9995
2 32791 97.5595 25.6631 0014462 53.2188 307.0356 14.91266633693048
RS-30
1 32953U 08025A 21035.75244486 .00000028 00000-0 12906-3 0 9999
2 32953 82.5059 133.4707 0018429 265.1339 94.7636 12.43099592576491
PRISM
1 33493U 09002B 21035.83084672 .00001280 00000-0 11538-3 0 9994
2 33493 98.1731 352.1427 0015448 12.5652 347.5951 14.97419615654488
NOAA-19
1 33591U 09005A 21035.80150488 .00000000 00000-0 25494-4 0 9998
2 33591 99.1926 53.1576 0014559 141.7959 218.4246 14.12450989618191
TISAT-1
1 36799U 10035E 21035.49891826 .00000371 00000-0 43126-4 0 9992
2 36799 98.2032 220.9331 0010969 291.6954 68.3095 14.91590778573514
JUGNU
1 37839U 11058B 21035.80325757 .00000325 00000-0 31654-4 0 9996
2 37839 19.9619 313.6845 0018984 70.3608 322.2504 14.12702522481794
SRMSAT
1 37841U 11058D 21035.31873613 .00000292 00000-0 15312-4 0 9990
2 37841 19.9735 25.7430 0011636 271.0526 241.1440 14.10684041480894
AO-71
1 37854U 11061E 21035.57825398 .00001292 00000-0 71058-4 0 9993
2 37854 101.7123 253.0295 0155902 91.2128 270.6951 15.08127712506909
HRBE
1 37855U 11061F 21035.54115563 .00001635 00000-0 86346-4 0 9994
2 37855 101.7260 250.0176 0168418 105.8591 256.1258 15.07163336506156
HORYU-2
1 38340U 12025D 21035.41043016 .00000184 00000-0 34628-4 0 9998
2 38340 98.2508 100.1841 0011831 26.8595 333.3223 14.75970367458764
RS-40
1 38735U 12041C 21035.49982858 -.00000010 00000-0 -14319-3 0 9992
2 38735 82.4746 215.9678 0017424 18.0407 342.1289 12.42581561386679
BEESAT-3
1 39135U 13015F 21035.07060204 .00001020 00000-0 58158-4 0 9995
2 39135 64.8655 273.0617 0014079 203.3836 156.6652 15.18882752430385
BEESAT-2
1 39136U 13015G 21035.40859611 .00001397 00000-0 76996-4 0 9998
2 39136 64.8734 277.8197 0028349 261.4727 98.3187 15.18269657430319
ZACUBE-1
1 39417U 13066B 21035.52741760 .00000261 00000-0 38952-4 0 9993
2 39417 97.5815 26.8368 0057410 236.1880 123.3860 14.81422004389390
